Location: Claflin County Park
(44.8478°N, 87.5507°W)
Time: 03:47:10
(UTC+00:00)

USA 234 - Pass Details

Date: 15 March 2026
Orbit: 1102 x 1106 km, 123.0° (Epoch: 4 January)

Event Time Altitude Azimuth Distance (km) Brightness Sun altitude
Exits shadow 00:11:32 - 64° (ENE) 3,889 5.6 -3.7°
Reaches altitude 10° 00:14:12 10° 55° (NE) 2,968 5.1 -4.2°
Maximum altitude 00:19:45 31° 357° (N) 1,844 4.5 -5.2°
Drops below altitude 10° 00:25:18 10° 299° (WNW) 2,969 6.7 -6.2°
Sets 00:28:04 0° 289° (WNW) 3,928 8.0 -6.7°
